Location: ??????
(52.6665°N, 53.4797°E)
Time: 08:55:52
(UTC+00:00)

Daily predictions for brighter satellites

Satellite Brightness Start Highest point End
(mag) Time Altitude Azimuth Time Altitude Azimuth Time Altitude Azimuth
Cosmos 2219 3.4 13:28:05 10° SSW 13:33:36 59° ESE 13:39:09 10° NE
Starlink P 2.9 13:33:22 10° W 13:36:35 82° N 13:39:48 10° E
ISS -2.4 13:33:50 10° SW 13:36:50 29° SSE 13:39:50 10° E
Cosmos 2297 Rocket 2.6 13:32:25 10° S 13:37:47 47° ESE 13:43:12 10° NE
Starlink U 2.9 13:35:26 10° W 13:38:39 82° N 13:41:51 10° E
Cosmos 44 4.1 13:35:08 10° S 13:39:05 30° ESE 13:42:56 10° ENE
Starlink B 2.9 13:37:32 10° W 13:40:44 82° N 13:43:57 10° E
Cosmos 1939 Rocket 4.3 13:38:27 10° E 13:41:07 18° ENE 13:43:49 10° NNE
Cosmos 1271 Rocket 3.6 13:38:00 10° SSW 13:41:39 49° WNW 13:45:23 10° N
Meteor 1-24 Rocket 4.2 13:38:46 10° SSW 13:44:04 64° WNW 13:49:37 10° N
ATLAS CENTAUR R/B 3.9 13:39:14 10° WSW 13:44:50 82° NNW 14:01:14 10° ENE
YAOGAN 1 3.5 13:42:50 10° ESE 13:46:26 26° ENE 13:50:03 10° N
Ariane Rocket 4.4 13:43:47 10° E 13:47:01 17° NE 13:50:15 10° NNE
Timation 2 Rocket 4.4 13:40:54 10° SW 13:47:04 67° NW 13:53:34 10° NNE
Cosmos 2341 Rocket 4.2 13:43:39 10° S 13:49:50 57° E 13:56:00 10° NNE
Cosmos 2227 Rocket 2.4 13:45:41 10° S 13:51:09 53° ESE 13:56:39 10° NE
Starlink AS 2.7 13:49:15 10° W 13:52:11 82° N 13:55:04 10° E
Starlink BA 2.6 13:49:28 10° W 13:52:24 82° N 13:55:16 11° E
Starlink AU 2.6 13:49:41 10° W 13:52:37 82° N 13:55:29 11° E
Starlink AT 2.7 13:49:55 10° W 13:52:51 82° N 13:55:43 11° E
Starlink BB 2.6 13:50:08 10° W 13:53:04 82° N 13:55:54 11° E
Starlink BC 2.6 13:50:21 10° W 13:53:18 82° N 13:56:07 11° E
Starlink BK 2.6 13:50:34 10° W 13:53:31 82° N 13:56:20 11° E
IRS-1C Rocket 4.3 13:48:22 10° SSE 13:53:38 79° WSW 13:58:56 10° NNW
Starlink AY 2.7 13:50:48 10° W 13:53:45 82° N 13:56:34 11° E
Starlink AW 2.6 13:51:01 10° W 13:53:58 82° N 13:56:46 11° E
Starlink BJ 2.6 13:51:15 10° W 13:54:12 82° N 13:57:00 11° E
Starlink AV 2.7 13:51:30 10° W 13:54:26 82° N 13:57:14 11° E
Starlink BD 2.6 13:51:43 10° W 13:54:40 82° N 13:57:26 11° E
Starlink BE 2.7 13:51:55 10° W 13:54:52 82° N 13:57:40 11° E
Starlink BM 2.6 13:52:10 10° W 13:55:07 82° N 13:57:52 11° E
Starlink AX 2.6 13:52:25 10° W 13:55:21 82° N 13:58:06 11° E
Starlink BH 2.6 13:52:35 10° W 13:55:32 82° N 13:58:17 11° E
Starlink D 2.9 13:52:24 10° W 13:55:38 82° N 13:58:43 11° E
Starlink AZ 2.6 13:52:50 10° W 13:55:46 82° N 13:58:31 11° E
Starlink BG 2.6 13:53:01 10° W 13:55:58 82° N 13:58:41 12° E
NOAA 12 4.1 13:50:45 10° SSE 13:55:59 82° ENE 14:01:17 10° NNW
Starlink BF 2.6 13:53:16 10° W 13:56:12 82° N 13:58:56 12° E
Starlink BL 2.7 13:53:27 10° W 13:56:25 82° N 13:59:10 12° E
Starlink AH 2.6 13:53:43 10° W 13:56:40 82° N 13:59:22 12° E
Starlink AC 2.6 13:53:58 10° W 13:56:54 82° N 13:59:36 12° E
Starlink AQ 2.7 13:54:07 10° W 13:57:04 82° N 13:59:46 12° E
Starlink X 2.6 13:54:08 10° W 13:57:05 82° N 13:59:46 12° E
Starlink AE 2.7 13:54:21 10° W 13:57:19 82° N 14:00:02 12° E
Starlink Z 2.6 13:54:37 10° W 13:57:33 82° N 14:00:13 12° E
Starlink AK 2.6 13:54:51 10° W 13:57:47 82° N 14:00:27 12° E
Starlink S 2.9 13:54:36 10° W 13:57:50 83° N 14:00:50 12° E
Starlink AL 2.6 13:55:06 10° W 13:58:02 82° N 14:00:41 12° E
Starlink AD 2.6 13:55:18 10° W 13:58:14 82° N 14:00:53 12° E
Starlink Y 2.6 13:55:44 10° W 13:58:41 82° N 14:01:18 12° E
Starlink AG 2.6 13:55:56 10° W 13:58:53 83° N 14:01:30 12° E
Starlink W 2.7 13:56:09 10° W 13:59:07 83° N 14:01:45 12° E
Starlink AJ 2.6 13:56:24 10° W 13:59:20 83° N 14:01:56 13° E
Cosmos 1339 Rocket 4.5 13:53:36 10° N 13:59:39 60° ENE 14:05:43 10° SSE
Starlink AM 2.6 13:56:54 10° W 13:59:49 83° N 14:02:24 13° E
Starlink C 2.9 13:56:43 10° W 13:59:58 83° N 14:02:53 12° E
Starlink AP 2.6 13:57:04 10° W 14:00:01 83° N 14:02:35 13° E
Starlink AA 2.6 13:57:21 10° W 14:00:17 83° N 14:02:51 13° E
Starlink AF 2.6 13:57:30 10° W 14:00:27 83° N 14:03:00 13° E
Starlink AB 2.6 13:57:47 10° W 14:00:43 83° N 14:03:16 13° E
Starlink AN 2.6 13:57:58 10° W 14:00:55 83° N 14:03:27 13° E
H-2A R/B 3.6 13:57:49 10° S 14:01:38 55° W 14:05:30 10° NNW
Starlink E 2.9 13:58:55 10° W 14:02:10 83° N 14:05:00 13° E
YAOGAN 6 2.6 13:58:41 10° SSE 14:02:16 58° ENE 14:05:52 10° N
Cosmos 1602 Rocket 4.1 13:58:02 10° SSW 14:02:21 61° WNW 14:06:41 10° N
Cosmos 1943 3.9 13:58:33 10° NNW 14:03:39 33° NE 14:08:45 10° ESE
SMAP 3.7 13:59:05 10° S 14:03:41 60° WSW 14:08:19 10° NNW
Starlink J 2.9 14:01:07 10° W 14:04:22 84° N 14:07:07 14° E
Starlink V 2.9 14:03:18 10° W 14:06:33 84° N 14:09:14 14° E
ERBS 2.2 14:04:44 10° WSW 14:08:05 81° NNW 14:10:40 16° ENE
Starlink H 2.9 14:05:31 10° W 14:08:47 85° N 14:11:22 15° E
Meteor 1-21 Rocket 4.2 14:03:46 10° S 14:09:23 74° E 14:15:10 10° NNE
Starlink F 2.9 14:07:44 10° W 14:11:00 85° N 14:13:30 16° E
PSLV R/B 4.1 14:07:02 10° NNE 14:11:08 75° WNW 14:15:13 10° SSW
Cosmos 2218 Rocket 4.2 14:06:06 10° SSE 14:12:13 52° E 14:18:26 10° NNE
Starlink G 2.9 14:09:57 10° W 14:13:13 86° N 14:15:38 17° E
FengYun 1-2 T 4.2 14:07:38 10° SSE 14:13:17 76° ENE 14:18:58 10° NNW
Starlink L 2.9 14:12:10 10° W 14:15:25 86° N 14:17:45 18° E
Cosmos 1953 Rocket 3.7 14:11:54 10° S 14:16:18 57° E 14:20:43 10° NNE
COSMO-SKYMED 1 3.0 14:12:09 10° NNE 14:16:18 41° E 14:20:25 10° S
Cosmos 1842 Rocket 4.1 14:12:43 10° N 14:16:56 38° ENE 14:21:07 10° SE
Starlink A 2.9 14:14:23 10° W 14:17:39 87° N 14:19:54 19° E
Cosmos 1626 4.0 14:15:06 10° SW 14:18:27 31° WNW 14:21:49 10° N
Starlink R 2.9 14:16:38 10° W 14:19:54 88° N 14:22:04 20° E
CSL-04 Debris 4.3 14:15:00 10° SE 14:20:14 54° ENE 14:25:30 10° N
Cosmos 1758 Rocket 3.6 14:16:01 10° SSW 14:20:20 85° W 14:24:42 10° N
Cosmos 1328 4.0 14:17:09 10° S 14:21:02 50° E 14:24:56 10° NNE
Cosmos 1959 Rocket 4.5 14:15:25 10° S 14:21:23 58° E 14:27:22 10° NNE
Starlink K 2.9 14:18:51 10° W 14:22:07 88° NNE 14:24:12 21° E
CZ-4 R/B 1.4 14:18:11 10° SSE 14:22:15 62° ENE 14:26:25 10° N
Cosmos 1140 Rocket 4.4 14:17:53 10° NNW 14:22:27 29° NE 14:25:53 15° E
CZ-4B R/B 4.2 14:21:27 10° NNW 14:23:01 13° WNW 14:24:34 10° W
Starlink M 2.9 14:21:03 10° W 14:24:19 89° N 14:26:19 22° E
ATLAS CENTAUR R/B 1.8 14:20:54 10° NW 14:24:58 61° SW 14:28:43 10° SSE
Iridium 96 4.2 14:24:50 10° NNW 14:27:13 58° W 14:29:43 10° S
Cosmos 2251 Rocket 3.7 14:22:25 10° NNW 14:27:45 78° WSW 14:33:04 10° SSE
SL-8 R/B 4.4 14:27:14 10° WSW 14:31:49 44° SSE 14:34:55 19° ESE
Starlink AR 2.4 14:31:38 10° W 14:34:17 79° SSW 14:35:16 34° ESE
USA 267 3.3 14:29:10 17° ENE 14:34:29 77° SSE 14:41:03 10° SW
H-2A R/B 3.1 14:34:26 21° E 14:35:55 24° ENE 14:39:58 10° N
Cosmos 2082 Rocket 4.3 14:34:39 10° NNW 14:36:43 12° N 14:38:45 10° NNE
ATLAS 5 CENTAUR R/B 3.3 14:32:47 10° WNW 14:36:49 26° N 14:40:06 15° NE
Cosmos 2366 rocket 3.9 14:33:02 10° S 14:39:14 74° E 14:45:34 10° NNE
USA 116 4.0 14:39:42 30° ESE 14:39:42 30° ESE 14:42:18 10° SSE
CSL-04 Rocket 3.6 14:34:03 10° SSE 14:39:33 73° ENE 14:45:08 10° NNW
SKYMED 3 4.5 14:35:57 10° NNE 14:40:19 69° ESE 14:44:38 10° S
Envisat 4.1 14:37:07 10° S 14:42:01 48° W 14:46:58 10° NNW
Cosmos 1825 Rocket 4.1 14:38:24 10° SSW 14:42:41 59° WNW 14:46:59 10° N
Cosmos 1703 3.2 14:42:12 10° S 14:46:11 87° E 14:50:12 10° NNE
Cosmos 1356 Rocket 3.4 14:43:32 10° NNW 14:47:36 84° W 14:51:43 10° S
Cosmos 2221 2.5 14:44:33 10° N 14:48:48 55° ENE 14:53:01 10° SSE
Cosmos 1455 3.7 14:48:07 10° NNW 14:51:41 38° W 14:55:11 10° SSW
Cosmos 407 Rocket 3.5 14:54:21 10° NNW 14:59:38 62° ENE 15:04:07 14° SE
Cosmos 1190 Rocket 4.1 14:55:03 10° NNW 15:00:18 56° ENE 15:03:57 20° SE
BREEZE-M DEB (TANK) 3.4 15:01:17 10° SW 15:03:10 30° SSE 15:03:10 30° SSE
SKYMED 2 3.8 15:00:07 10° N 15:04:28 73° WNW 15:08:48 10° SSW
SL-16 R/B 3.9 14:59:57 10° NW 15:05:04 35° WSW 15:10:07 10° S
Cosmos 1727 Rocket 4.2 14:59:06 10° NNW 15:05:18 75° W 15:11:26 10° S
SPOT 3 Rocket 4.4 15:05:59 29° NE 15:05:59 29° NE 15:10:00 10° N
Starlink T 3.0 15:03:09 10° W 15:06:20 67° SSW 15:06:41 60° SSE
Starlink N 3.0 15:05:09 10° W 15:08:20 66° SSW 15:08:37 62° SSE
HJ-1C 4.2 15:09:28 37° NNE 15:09:28 37° NNE 15:11:43 10° N
Cosmos 1869 3.3 15:06:27 10° N 15:10:24 55° ENE 15:10:44 53° E
Starlink Q 3.0 15:07:24 10° W 15:10:34 65° SSW 15:10:46 62° S
CZ-2D R/B 3.5 15:08:30 10° S 15:12:19 69° WSW 15:16:12 10° NNW
Cosmos 676 Rocket 4.3 15:07:30 10° NNW 15:12:40 46° ENE 15:13:52 39° E
Starlink P 3.1 15:09:29 10° W 15:12:40 63° SSW 15:12:47 63° S
ISS -3.8 15:09:58 10° WSW 15:13:21 69° S 15:13:25 69° SSE
Starlink U 3.1 15:11:32 10° W 15:14:44 62° SSW 15:14:46 62° SSW
Cosmos 1939 Rocket 3.2 15:11:41 10° S 15:15:37 65° W 15:19:38 10° NNW
Cosmos 2082 4.0 15:11:02 10° SW 15:16:37 67° NW 15:21:06 17° NNE
Starlink B 3.2 15:13:39 10° W 15:16:47 61° SSW 15:16:47 61° SSW
Cosmos 1603 3.8 15:12:46 10° NNW 15:18:28 79° WSW 15:24:06 10° SSE
Cosmos 44 3.6 15:15:42 10° WSW 15:20:06 53° NW 15:21:53 32° NNE
ADEOS Rocket 3.3 15:14:40 10° NNE 15:21:18 58° E 15:28:34 10° S
Cosmos 2297 Rocket 3.3 15:16:36 10° WSW 15:21:57 42° NW 15:26:46 13° NNE
YAOGAN 1 3.7 15:18:11 10° S 15:22:20 45° W 15:26:32 10° NNW
ARGOS 3.4 15:23:24 45° E 15:23:55 46° ENE 15:29:04 10° N
SJ-11-01 4.2 15:22:06 28° SSE 15:24:34 68° ENE 15:29:17 10° N
Ariane Rocket 2.9 15:20:10 10° SSE 15:25:15 80° ENE 15:30:22 10° NNW
Starlink AS 4.1 15:24:26 10° W 15:26:37 39° WSW 15:26:37 39° WSW
Starlink BA 4.1 15:24:39 10° W 15:26:49 38° WSW 15:26:49 38° WSW
Starlink AU 4.1 15:24:52 10° W 15:27:02 38° WSW 15:27:02 38° WSW
Starlink AT 4.1 15:25:06 10° W 15:27:15 38° WSW 15:27:15 38° WSW
Cosmos 2263 Rocket 2.6 15:22:53 10° S 15:27:33 41° SE 15:27:33 41° SE
Starlink BB 4.1 15:25:19 10° W 15:27:28 38° WSW 15:27:28 38° WSW
Starlink BC 4.1 15:25:33 10° W 15:27:41 37° WSW 15:27:41 37° WSW
Starlink BK 4.2 15:25:46 10° W 15:27:53 37° WSW 15:27:53 37° WSW
Starlink AY 4.2 15:26:00 10° W 15:28:07 37° WSW 15:28:07 37° WSW
Starlink AW 4.2 15:26:12 10° W 15:28:19 37° WSW 15:28:19 37° WSW
Starlink BJ 4.2 15:26:27 10° W 15:28:33 36° WSW 15:28:33 36° WSW
Starlink AV 4.2 15:26:42 10° W 15:28:47 36° WSW 15:28:47 36° WSW
Starlink BD 4.2 15:26:54 10° W 15:28:59 36° WSW 15:28:59 36° WSW
Starlink BE 4.2 15:27:07 10° W 15:29:14 37° WSW 15:29:14 37° WSW
Starlink BM 4.3 15:27:22 10° W 15:29:25 36° WSW 15:29:25 36° WSW
Starlink AX 4.3 15:27:36 10° W 15:29:39 35° WSW 15:29:39 35° WSW
Starlink BH 4.3 15:27:47 10° W 15:29:50 35° WSW 15:29:50 35° WSW
Starlink AZ 4.3 15:28:02 10° W 15:30:04 35° WSW 15:30:04 35° WSW
Starlink BG 4.3 15:28:13 10° W 15:30:14 35° WSW 15:30:14 35° WSW
Starlink BF 4.3 15:28:27 10° W 15:30:29 34° WSW 15:30:29 34° WSW
Starlink BL 4.3 15:28:38 10° W 15:30:42 35° WSW 15:30:42 35° WSW
Starlink AH 4.4 15:28:55 10° W 15:30:54 34° WSW 15:30:54 34° WSW
Starlink D 4.0 15:28:37 10° W 15:31:14 45° WSW 15:31:14 45° WSW
Starlink AC 4.4 15:29:09 10° W 15:31:09 34° WSW 15:31:09 34° WSW
Meteor 1-11 4.5 15:26:33 10° SSW 15:32:07 68° WNW 15:37:42 10° N
Starlink AQ 4.4 15:29:17 10° W 15:31:18 34° WSW 15:31:18 34° WSW
Starlink X 4.4 15:29:19 10° W 15:31:18 34° WSW 15:31:18 34° WSW
Starlink AE 4.3 15:29:32 10° W 15:31:35 35° WSW 15:31:35 35° WSW
Starlink Z 4.4 15:29:48 10° W 15:31:46 33° WSW 15:31:46 33° WSW
Starlink AK 4.4 15:30:03 10° W 15:32:00 33° WSW 15:32:00 33° WSW
Starlink AL 4.4 15:30:17 10° W 15:32:14 33° WSW 15:32:14 33° WSW
Starlink AD 4.5 15:30:29 10° W 15:32:25 32° WSW 15:32:25 32° WSW
Starlink Y 4.5 15:30:55 10° W 15:32:51 32° WSW 15:32:51 32° WSW
USA 238 DEB 4.1 15:27:47 10° S 15:33:54 39° ESE 15:33:59 39° ESE
Starlink S 4.1 15:30:49 10° W 15:33:21 42° WSW 15:33:21 42° WSW
USA 238 4.1 15:27:55 10° S 15:34:00 39° ESE 15:34:03 39° ESE
Starlink W 4.5 15:31:20 10° W 15:33:18 33° WSW 15:33:18 33° WSW
Cosmos 2227 Rocket 3.4 15:30:11 10° WSW 15:35:26 38° NW 15:39:48 14° NNE
CZ-2C R/B 3.3 15:35:30 52° ENE 15:35:45 52° ENE 15:41:20 10° N
Starlink C 4.2 15:32:57 10° W 15:35:24 40° WSW 15:35:24 40° WSW
Cosmos 614 Rocket 4.3 15:33:00 10° NNW 15:38:11 67° WSW 15:42:53 13° S
Starlink E 4.3 15:35:10 10° W 15:37:32 38° WSW 15:37:32 38° WSW
SL-24 R/B 4.4 15:38:54 63° ESE 15:39:25 68° ENE 15:44:50 10° N
Starlink J 4.5 15:37:22 10° W 15:39:39 36° WSW 15:39:39 36° WSW
Cosmos 1833 Rocket 4.5 15:39:33 10° NNW 15:42:44 18° NNE 15:42:44 18° NNE
ERBS 4.0 15:41:35 10° WNW 15:43:39 29° NW 15:43:39 29° NW
Cosmos 1821 Rocket 3.9 15:39:55 10° S 15:46:17 89° WNW 15:52:35 10° N
Cosmos 1943 3.5 15:42:31 10° NW 15:48:06 63° WSW 15:51:52 21° S
COSMO-SKYMED 1 4.5 15:48:36 10° N 15:52:20 28° WNW 15:56:03 10° WSW
Timation 1 Rocket 4.4 15:47:59 10° SSW 15:53:10 56° SE 15:53:10 56° SE
Cosmos 2084 3.9 15:50:15 10° NW 15:53:49 57° NW 15:53:49 57° NW
CZ-4 R/B 4.4 15:54:54 10° SW 15:57:42 17° W 16:00:31 10° NW
Cosmos 1140 Rocket 3.9 15:59:27 10° NNW 16:04:40 62° WSW 16:05:59 46° SSW
Cosmos 44 Rocket 3.7 16:01:23 10° SW 16:05:09 55° SW 16:05:09 55° SW
Cosmos 2123 Rocket 4.1 16:02:53 10° NNW 16:09:12 74° W 16:15:26 10° S
ATLAS 5 CENTAUR R/B 3.9 16:08:51 10° WNW 16:13:44 70° SW 16:33:47 10° SE
H-2A R/B 2.2 16:15:03 69° W 16:15:03 69° W 16:20:05 10° NNW
USA 267 3.3 16:16:30 58° NNE 16:17:30 66° N 16:23:58 10° W
Cosmos 1934 Rocket 3.9 16:11:53 10° SSW 16:17:57 83° W 16:24:04 10° N
ATLAS 5 CENTAUR R/B 3.5 16:18:18 10° NW 16:21:38 28° N 16:21:38 28° N
Cosmos 2082 Rocket 4.1 16:19:04 10° NNW 16:21:16 17° N 16:21:16 17° N
ADEOS Rocket 4.5 17:00:35 10° N 17:06:38 39° WNW 17:13:13 10° SW
Cosmos 2263 Rocket 3.9 17:06:41 10° WSW 17:09:20 26° WSW 17:09:20 26° WSW
ATLAS 3B R/B 3.8 23:49:50 36° E 23:49:50 36° E 23:53:55 10° ESE
